AC3R42-Engagements
LA FORESTIERE DE ST ALBAN ST ALBAN LES EAUX 42 09-06-2024  (en cas de difficulté informatique ac3r42@gmail.com)
90 arrivants / 9 KM / Classt général
Clt Dos Temps Coureur(s) Club Cat ClCt
1 388 0:40:38 ALLION YANNICK NL V1M 1
2 393 0:41:53 PASCAL PICHON CLUB ATHLETIQUE DU ROANNAIS V2M 1
3 380 0:42:05 FLORIAN MURE NL SEM 1
4 375 0:42:16 MARVIN HEROS RUNNING CLUB MABLY SEM 2
5 397 0:42:39 AURELIEN DUBOST Loire Nord Canisports SEM 3
6 359 0:44:06 GEOFFREY GRAS NL SEM 4
7 370 0:44:30 ALBERTO BASILE CLUB ATHLETIQUE DU ROANNAIS V1M 2
8 386 0:44:33 CHRISTOPHE CUPILLARD CLUB ATHLETIQUE DU ROANNAIS V1M 3
9 414 0:44:43 JULIEN PENE RC VICHY SEM 5
10 398 0:44:50 PARDON PIERRE-CAMILLE NL SEM 6
11 377 0:46:10 BERRAT BENJAMIN CLUB ATHLETIQUE DU ROANNAIS SEM 7
12 438 0:46:17 CHANELIERE DIDIER Club Athlétique du Roannais V2M 2
13 404 0:46:37 CHADEBEC PATRICK CLUB ATHLETIQUE DU ROANNAIS V3M 1
14 433 0:47:04 FAISANDIER ANNA NL SEF 1
15 406 0:47:47 GUILLOT THOMAS NL SEM 8
16 400 0:48:00 DEWAELE ANTOINE FSPN SEM 9
17 435 0:49:15 ROCHE JULESD NL SEM 10
18 356 0:50:18 FURNON DOMINIQUE AMAR RENAISON V3M 2
19 410 0:50:22 MIOLLAN FREDERIC NL V1M 4
20 399 0:50:23 VIVIEN FALCON CLUB ATHLETIQUE DU ROANNAIS V1M 5
21 354 0:51:39 ANTHONY MARTIN NL SEM 11
22 374 0:53:04 YANNICK FABRE NL V1M 6
23 413 0:53:27 ESTEBAN SONNERY NL SEM 12
24 437 0:53:54 GUILLAUME PERARD NL V1M 7
25 428 0:53:58 LONGIN SERGE AMAR RENAISON V3M 3
26 434 0:54:00 BOURCIER ROMAIN NL SEM 13
27 418 0:54:06 BLANCHET STEPHANE UCCV V2M 3
28 422 0:54:33 QUENTIN LACOTE NL SEM 14
29 376 0:54:55 LEONEL DA CUNHA CLUB ATHLETIQUE DU ROANNAIS V1M 8
30 367 0:55:01 MATHIS FAYET CHANTELOT NL SEM 15
31 440 0:55:38 SEBASTIEN CHOULY NL V2M 4
32 390 0:56:16 ARTHUR GAULTIER NL ESM 1
33 364 0:56:19 MELISSA TERRENOIRE ORMA RIORGES SEF 2
34 420 0:56:34 DAVID HATET NL SEM 16
35 426 0:56:59 AURELIEN BOUTELOUP RC VICHY UCCV V1M 9
36 427 0:57:03 RANDRIANASOLO EVA Uccv SEF 3
37 431 0:57:25 LATRICHE VALERIE AMA RENAISON V1F 1
38 419 0:58:30 BLANCHET SANDRA UCCV V2F 1
39 421 0:58:43 FOURNIER MELODIE ORMA RIORGES SEF 4
40 379 0:59:02 CHAMBENOIS MARION NL SEF 5
41 425 0:59:09 PONTILLE NATHALIE ORMA RIORGES V1F 2
42 387 0:59:21 MARECHAL ADRIEN CAL CHARLIEU SEM 17
43 372 1:00:00 LOMBARD JOSEPH CLUB ATHLETIQUE DU ROANNAIS V4M 1
44 405 1:00:03 LACHEREZ PASCAL CLUB ATHLETIQUE DU ROANNAIS V2M 5
45 423 1:00:05 HEM GUILLAUME NL V1M 10
46 424 1:00:29 PILON GREGORY NL V1M 11
47 416 1:00:41 MOLIERE NICOLE NL V3F 1
48 391 1:00:42 GAULTIER SIMON NL ESM 2
49 361 1:00:44 MONTFAUCON MICHEL NL V3M 4
50 352 1:01:09 LEFEVRE PASCAL AMAR RENAISON V2M 6
51 430 1:01:37 MERCAN ALEXIA NL SEF 6
52 373 1:02:40 GOUREAU LUCIE NL V2F 2
53 392 1:02:43 GAULTIER LILIAN NL CAM 1
54 351 1:03:27 SAMUEL DAGBERT AMAR RENAISON CAM 2
55 436 1:03:31 PERARD DELPHINE NL V1F 3
56 360 1:03:54 CHAIZE LEA NL SEF 7
57 362 1:04:06 MAGALI HOARAU NL V1F 4
58 371 1:05:42 BERENGERE MUGUET RUNNING CLUB MABLY V1F 5
59 417 CHALVET HANANE ORMA RIORGES V1F 6
60 357 1:06:49 COUTO CELINE RUNNING CLUB MABLY SEF 8
61 439 1:07:12 CHALVET MICHAEL NL V1M 12
62 403 1:07:17 GOTTE CHRISTINE ORMA RIORGES V2F 3
63 441 1:08:11 SEURRE PATRICK NL V3M 5
64 411 1:08:12 MIOLLAN SANDRINE NL V1F 7
65 401 1:08:51 ARMAND CHANSARD NL SEM 18
66 383 1:08:57 MARTINS REMI NL SEM 19
67 432 1:09:28 SAMUEL DUVIEN NL V1M 13
68 350 1:09:38 MARIE-ANNE GASCON CLUB ATHLETIQUE DU ROANNAIS SEF 9
69 355 1:09:38 MARIE LAPENDERY AMAR RENAISON SEF 10
70 369 1:10:02 LAFAY MARINE NL SEF 11
71 368 1:11:15 MARTIN YANNICK NL SEM 20
72 415 1:11:17 DECORAY FRANCOISE CLUB ATHLETIQUE DU ROANNAIS V4F 1
73 408 1:11:35 GENESTE MATHIAS NL SEM 21
74 407 1:11:48 HEBRARD LUCAS NL SEM 22
75 363 1:12:26 TULOUP ELODIE NL SEF 12
76 366 1:12:53 DURIER LUCIE NL JUF 1
77 365 1:13:06 DURIER AURELIE AMAR RENAISON V1F 8
78 389 1:13:07 GAULTIER BEATRICE ORMA RIORGES V2F 4
79 412 1:15:12 COTTE MARIE PIERRE NL V2F 5
80 429 1:15:14 DOMINIQUE LONGIN AMAR RENAISON V3F 2
81 382 1:15:52 FABIEN CHALAYE NL SEM 23
82 385 1:15:52 GIRARD MAXIME NL SEM 24
83 384 1:18:50 VINCENT DYLAN NL SEM 25
84 381 1:19:53 BRUN EMELINE NL SEF 13
85 396 1:26:32 JEAN MICHEL PERRIN NL V3M 6
86 395 1:26:32 PERRIN DEMEURE JILL NL ESF 1
87 402 1:26:48 CUISSON MAELLE NL SEF 14
88 353 1:27:19 LEA LEGLAY NL SEF 15
89 378 1:27:36 BRIGITTE HEISE CLUB ATHLETIQUE DU ROANNAIS V3F 3
90 394 2:32:20 FORGE ARNAUD NL V2M 7